Location: Brivio
(45.7333°N, 9.4500°E)
Time: 02:09:39
(UTC+00:00)

Gbstr 26 Del rocket - Pass Details

Date: 18 October 2019
Orbit: 493 x 1264 km, 51.8° (Epoch: 16 November)

Event Time Altitude Azimuth Distance (km) Brightness Sun altitude
Rises 17:02:17 0° 291° (WNW) 3,241 8.0 -6.0°
Reaches altitude 10° 17:04:34 10° 296° (WNW) 2,423 7.1 -6.4°
Maximum altitude 17:10:14 55° 14° (NNE) 1,135 4.3 -7.4°
Drops below altitude 10° 17:17:12 10° 92° (E) 2,959 5.8 -8.6°
Enters shadow 17:17:14 10° 92° (E) 2,968 5.9 -8.6°
